User: anonymous   Login
Location: Tierra del Sol
(32.6128°N, 116.3319°W)
Time: 23:16:07
(UTC-07:00)
Language:

Envisat - Orbit

View from above orbital plane
View from above orbital plane
View from above satellite
View from above satellite

Ground track
Ground track

The orbit data is extracted from the following two-line orbital elements,

1 27386U 02009A   18203.59519576 -.00000024 +00000-0 +57146-5 0  9993
2 27386 098.1819 235.9830 0001391 095.9553 014.6140 14.37926100858543
Epoch (UTC): 22 July 2018 14:17:04
Eccentricity: 0.0001391
inclination: 98.1819°
perigee height: 764 km
apogee height: 766 km
right ascension of ascending node: 235.9830°
argument of perigee: 95.9553°
revolutions per day: 14.37926100
mean anomaly at epoch: 14.6140°
orbit number at epoch: 85854

The dashed part of the orbit path shows where the satellite is in the earth's shadow,  

DLR